www.pogodaiklimat.ru

Погода и климат >> Архив погоды >> Антарктида >> Linda


ПОГОДА в Linda

  • Прогноз погоды в Linda
  • Монитор погоды в Linda
  • Климат города

АРХИВ ПОГОДЫ в Linda

Время (UTC), дата Ветер
(напр.,м/с)
 
Видим.   Явления Облачность Т
(С)
Тd
(С)
f
(%)
Тe
(С)
Тes
(С)
Комфортность P
(гПа)
Po
(гПа)
Тmin
(С)
Tmax
(С)
R
(мм)
R24
(мм)
S
(см)
16 17.09 Ю 20 н/о н/о -19.5 -37 -37 опасность
обморожения
983.6 978.1
17 17.09 Ю 17 н/о н/о -18.9 -35 -35 опасность
обморожения
982.3 976.8
18 17.09 Ю 19 н/о н/о -17.4 -34 -34 опасность
обморожения
981.7 976.2
19 17.09 Ю 17 н/о н/о -17.3 -33 -33 опасность
обморожения
981.5 976.0
20 17.09 Ю 15 н/о н/о -18.1 -33 -33 опасность
обморожения
982.3 976.8
21 17.09 Ю 17 н/о н/о -18.9 -35 -35 опасность
обморожения
981.6 976.1
22 17.09 Ю 18 н/о н/о -20.7 -38 -38 опасность
обморожения
981.0 975.5
00 18.09 Ю 14 н/о н/о -22.0 -38 -38 опасность
обморожения
981.1 975.5
02 18.09 Ю 16 н/о н/о -21.9 -39 -39 опасность
обморожения
981.6 976.0
01 18.09 Ю 15 н/о н/о -22.0 -39 -39 опасность
обморожения
981.4 975.8
03 18.09 Ю 11 н/о н/о -23.3 -39 -39 опасность
обморожения
982.3 976.7
04 18.09 Ю 12 н/о н/о -22.6 -38 -38 опасность
обморожения
981.5 975.9
05 18.09 Ю 10 н/о н/о -24.5 -40 -40 опасность
обморожения
981.5 975.9
06 18.09 Ю 11 н/о н/о -25.6 -41 -41 опасность
обморожения
980.9 975.2
08 18.09 Ю 12 н/о н/о -23.6 -40 -40 опасность
обморожения
980.0 974.4
07 18.09 Ю 12 н/о н/о -23.2 -39 -39 опасность
обморожения
980.4 974.8
09 18.09 Ю 13 н/о н/о -23.5 -40 -40 опасность
обморожения
978.9 973.3
10 18.09 Ю 11 н/о н/о -23.2 -39 -39 опасность
обморожения
979.0 973.4
11 18.09 Ю 13 н/о н/о -23.4 -40 -40 опасность
обморожения
977.9 972.3
12 18.09 Ю 12 н/о н/о -24.1 -40 -40 опасность
обморожения
977.8 972.2
14 18.09 Ю 14 н/о н/о -23.7 -41 -41 опасность
обморожения
976.0 970.4
13 18.09 Ю 14 н/о н/о -23.9 -41 -41 опасность
обморожения
976.9 971.3
15 18.09 Ю 14 н/о н/о -23.8 -41 -41 опасность
обморожения
975.9 970.3
17 18.09 Ю 15 н/о н/о -23.8 -41 -41 опасность
обморожения
974.3 968.7
18 18.09 Ю 12 н/о н/о -25.0 -41 -41 опасность
обморожения
974.3 968.7
19 18.09 Ю 9 н/о н/о -26.1 -41 -41 опасность
обморожения
974.2 968.6
21 18.09 Ю 9 н/о н/о -27.5 -43 -43 опасность
обморожения
972.9 967.3
22 18.09 Ю 10 н/о н/о -27.2 -43 -43 опасность
обморожения
972.7 967.1
00 19.09 Ю 10 н/о н/о -27.1 -43 -43 опасность
обморожения
972.5 966.9
01 19.09 Ю 13 н/о н/о -27.6 -45 -45 опасность
обморожения
972.2 966.6
02 19.09 Ю 15 н/о н/о -26.8 -45 -45 опасность
обморожения
971.5 965.9
03 19.09 Ю 14 н/о н/о -25.4 -43 -43 опасность
обморожения
970.9 965.3
04 19.09 Ю 14 н/о н/о -25.4 -43 -43 опасность
обморожения
970.9 965.3
05 19.09 Ю 13 н/о н/о -26.5 -44 -44 опасность
обморожения
970.6 965.0
06 19.09 Ю 13 н/о н/о -27.6 -45 -45 опасность
обморожения
970.5 964.9
07 19.09 Ю 12 н/о н/о -28.4 -46 -46 опасность
обморожения
970.6 964.9
08 19.09 Ю 11 н/о н/о -28.5 -46 -46 опасность
обморожения
970.6 964.9
09 19.09 Ю 12 н/о н/о -29.5 -48 -48 опасность
обморожения
970.1 964.4
10 19.09 Ю 13 н/о н/о -28.1 -46 -46 опасность
обморожения
969.7 964.1
11 19.09 Ю 14 н/о н/о -27.3 -45 -45 опасность
обморожения
969.0 963.4
12 19.09 Ю 16 н/о н/о -25.3 -44 -44 опасность
обморожения
969.0 963.4
13 19.09 ЮЗ 9 н/о н/о -26.8 -42 -42 опасность
обморожения
969.4 963.8
14 19.09 Ю 8 н/о н/о -25.4 -39 -39 опасность
обморожения
969.3 963.7
15 19.09 Ю 8 н/о н/о -26.6 -41 -41 опасность
обморожения
969.9 964.3
16 19.09 Ю 10 н/о н/о -25.9 -42 -42 опасность
обморожения
969.7 964.1
17 19.09 Ю 12 н/о н/о -25.9 -42 -42 опасность
обморожения
969.7 964.1
18 19.09 Ю 7 н/о н/о -26.8 -41 -41 опасность
обморожения
970.5 964.9
19 19.09 Ю 9 н/о н/о -28.4 -44 -44 опасность
обморожения
970.8 965.1
20 19.09 Ю 10 н/о н/о -28.0 -44 -44 опасность
обморожения
971.2 965.5
21 19.09 Ю 10 н/о н/о -26.4 -42 -42 опасность
обморожения
971.4 965.8
22 19.09 Ю 10 н/о н/о -26.4 -42 -42 опасность
обморожения
972.3 966.7
00 20.09 Ю 10 н/о н/о -25.7 -41 -41 опасность
обморожения
974.2 968.6
02 20.09 Ю 9 н/о н/о -24.9 -40 -40 опасность
обморожения
975.3 969.7
01 20.09 Ю 11 н/о н/о -25.4 -41 -41 опасность
обморожения
974.9 969.3
03 20.09 ЮЗ 10 н/о н/о -24.0 -39 -39 опасность
обморожения
976.3 970.7
04 20.09 Ю 13 н/о н/о -23.8 -40 -40 опасность
обморожения
977.0 971.4
05 20.09 Ю 13 н/о н/о -22.3 -38 -38 опасность
обморожения
977.4 971.8
06 20.09 Ю 11 н/о н/о -21.0 -36 -36 опасность
обморожения
978.3 972.8
08 20.09 ЮЗ 12 н/о н/о -21.6 -37 -37 опасность
обморожения
980.1 974.5
07 20.09 Ю 11 н/о н/о -21.5 -36 -36 опасность
обморожения
979.4 973.8
09 20.09 ЮЗ 10 н/о н/о -21.0 -35 -35 опасность
обморожения
980.1 974.6
10 20.09 ЮЗ 11 н/о н/о -21.1 -36 -36 опасность
обморожения
980.7 975.1
11 20.09 ЮЗ 11 н/о н/о -21.2 -36 -36 опасность
обморожения
981.2 975.6
12 20.09 ЮЗ 13 н/о н/о -20.5 -36 -36 опасность
обморожения
981.6 976.1
14 20.09 ЮЗ 11 н/о н/о -19.9 -34 -34 опасность
обморожения
982.8 977.3
13 20.09 ЮЗ 13 н/о н/о -19.3 -34 -34 опасность
обморожения
982.4 976.9
15 20.09 Ю 15 н/о н/о -18.7 -34 -34 опасность
обморожения
982.4 976.9
16 20.09 ЮЗ 14 н/о н/о -18.8 -34 -34 опасность
обморожения
982.2 976.7
17 20.09 ЮЗ 14 н/о н/о -18.6 -34 -34 опасность
обморожения
982.7 977.2
18 20.09 Ю 9 н/о н/о -19.1 -32 -32 опасность
обморожения
983.8 978.3
20 20.09 Ю 8 н/о н/о -23.0 -36 -36 опасность
обморожения
983.7 978.1
21 20.09 Ю 5 н/о н/о -24.7 -36 -36 опасность
обморожения
984.2 978.5
22 20.09 Ю 4 н/о н/о -24.7 -35 -35 опасность
обморожения
983.9 978.3
00 21.09 ЮВ 4 н/о н/о -25.8 -36 -36 опасность
обморожения
983.0 977.3
01 21.09 ЮВ 4 н/о н/о -25.4 -35 -35 опасность
обморожения
982.3 976.6
02 21.09 С 6 н/о н/о -24.7 -37 -37 опасность
обморожения
981.8 976.2
03 21.09 С 5 н/о н/о -24.6 -36 -36 опасность
обморожения
981.7 976.1
04 21.09 С 4 н/о н/о -24.4 -34 -34 опасность
обморожения
981.2 975.6
06 21.09 С 4 н/о н/о -26.1 -36 -36 опасность
обморожения
981.0 975.3
07 21.09 СЗ 1 н/о н/о -21.2 -24 -24 981.1 975.5
08 21.09 ЮЗ 5 н/о н/о -25.9 -37 -37 опасность
обморожения
981.8 976.1
09 21.09 В 3 н/о н/о -27.6 -37 -37 опасность
обморожения
982.6 976.9
10 21.09 Ю 4 н/о н/о -30.0 -41 -41 опасность
обморожения
983.7 977.9
11 21.09 ЮВ 5 н/о н/о -29.5 -42 -42 опасность
обморожения
984.4 978.6
12 21.09 Ю 6 н/о н/о -29.8 -44 -44 опасность
обморожения
985.1 979.3
13 21.09 Ю 8 н/о н/о -28.9 -44 -44 опасность
обморожения
985.8 980.0
14 21.09 Ю 8 н/о н/о -29.2 -44 -44 опасность
обморожения
986.0 980.2
15 21.09 Ю 7 н/о н/о -29.1 -43 -43 опасность
обморожения
986.5 980.7
16 21.09 Ю 5 н/о н/о -29.3 -42 -42 опасность
обморожения
987.3 981.5
17 21.09 Ю 3 н/о н/о -30.0 -40 -40 опасность
обморожения
988.1 982.3
18 21.09 Ю 3 н/о н/о -30.6 -40 -40 опасность
обморожения
988.8 983.0
19 21.09 Ю 3 н/о н/о -31.1 -40 -40 опасность
обморожения
989.1 983.3
20 21.09 Ю 3 н/о н/о -31.6 -42 -42 опасность
обморожения
989.8 984.0
21 21.09 Ю 2 н/о н/о -31.2 -38 -38 опасность
обморожения
990.4 984.6
22 21.09 0 н/о н/о -30.8 990.8 985.0
00 22.09 ЮЗ 2 н/о н/о -30.4 -37 -37 опасность
обморожения
991.6 985.8
02 22.09 0 н/о н/о -29.7 992.1 986.3
01 22.09 Ю 1 н/о н/о -30.0 -34 -34 опасность
обморожения
991.8 986.0
03 22.09 Ю 2 н/о н/о -28.9 -36 -36 опасность
обморожения
992.5 986.7
04 22.09 Ю 3 н/о н/о -29.5 -38 -38 опасность
обморожения
992.7 986.9
05 22.09 Ю 2 н/о н/о -28.9 -36 -36 опасность
обморожения
993.1 987.3
06 22.09 Ю 3 н/о н/о -28.3 -37 -37 опасность
обморожения
993.3 987.5
08 22.09 Ю 4 н/о н/о -27.5 -38 -38 опасность
обморожения
993.6 987.8
07 22.09 Ю 3 н/о н/о -28.0 -37 -37 опасность
обморожения
993.4 987.6
09 22.09 Ю 3 н/о н/о -27.9 -37 -37 опасность
обморожения
993.9 988.1
10 22.09 Ю 3 н/о н/о -28.1 -37 -37 опасность
обморожения
993.8 988.0
11 22.09 Ю 2 н/о н/о -28.4 -36 -36 опасность
обморожения
994.0 988.2
12 22.09 0 н/о н/о -28.7 994.2 988.4
14 22.09 Ю 6 н/о н/о -29.4 -42 -42 опасность
обморожения
994.0 988.2
13 22.09 Ю 2 н/о н/о -29.3 -35 -35 опасность
обморожения
994.1 988.3
15 22.09 Ю 5 н/о н/о -29.6 -42 -42 опасность
обморожения
993.9 988.1
16 22.09 Ю 7 н/о н/о -29.1 -43 -43 опасность
обморожения
993.8 988.0
17 22.09 Ю 8 н/о н/о -27.8 -42 -42 опасность
обморожения
993.4 987.6
18 22.09 Ю 8 н/о н/о -28.0 -43 -43 опасность
обморожения
993.3 987.5
20 22.09 Ю 8 н/о н/о -27.8 -42 -42 опасность
обморожения
993.1 987.3
19 22.09 Ю 7 н/о н/о -28.6 -43 -43 опасность
обморожения
993.1 987.3
21 22.09 Ю 10 н/о н/о -27.8 -44 -44 опасность
обморожения
993.1 987.3
22 22.09 Ю 10 н/о н/о -28.3 -45 -45 опасность
обморожения
993.5 987.7
00 23.09 Ю 7 н/о н/о -30.7 -45 -45 опасность
обморожения
993.5 987.7
01 23.09 Ю 9 н/о н/о -30.7 -47 -47 опасность
обморожения
992.9 987.1
02 23.09 Ю 13 н/о н/о -27.6 -45 -45 опасность
обморожения
992.6 986.8
03 23.09 Ю 12 н/о н/о -27.4 -45 -45 опасность
обморожения
992.5 986.7
04 23.09 Ю 12 н/о н/о -28.7 -47 -47 опасность
обморожения
992.9 987.1
05 23.09 Ю 13 н/о н/о -29.1 -47 -47 опасность
обморожения
992.9 987.1
06 23.09 Ю 10 н/о н/о -30.2 -47 -47 опасность
обморожения
992.9 987.1
07 23.09 Ю 10 н/о н/о -30.9 -48 -48 опасность
обморожения
992.7 986.9
08 23.09 Ю 11 н/о н/о -28.9 -46 -46 опасность
обморожения
992.4 986.6
09 23.09 Ю 13 н/о н/о -27.5 -45 -45 опасность
обморожения
992.2 986.4
10 23.09 Ю 12 н/о н/о -28.8 -46 -46 опасность
обморожения
992.5 986.7
11 23.09 Ю 11 н/о н/о -29.7 -47 -47 опасность
обморожения
992.7 986.9
12 23.09 Ю 13 н/о н/о -30.0 -49 -49 опасность
обморожения
992.6 986.8
13 23.09 Ю 12 н/о н/о -30.7 -49 -49 опасность
обморожения
992.1 986.3
14 23.09 Ю 11 н/о н/о -30.4 -48 -48 опасность
обморожения
992.2 986.4
15 23.09 Ю 11 н/о н/о -31.4 -49 -49 опасность
обморожения
992.0 986.1
16 23.09 Ю 10 н/о н/о -32.1 -50 -50 опасность
обморожения
991.6 985.7
17 23.09 Ю 10 н/о н/о -32.9 -51 -51 опасность
обморожения
991.4 985.5
18 23.09 Ю 7 н/о н/о -33.5 -49 -49 опасность
обморожения
991.7 985.8
19 23.09 Ю 8 н/о н/о -34.1 -50 -50 опасность
обморожения
991.5 985.6
20 23.09 Ю 6 н/о н/о -34.8 -50 -50 опасность
обморожения
991.6 985.7
21 23.09 Ю 5 н/о н/о -35.1 -48 -48 опасность
обморожения
991.7 985.8
22 23.09 Ю 6 н/о н/о -35.2 -50 -50 опасность
обморожения
991.8 985.9
00 24.09 Ю 5 н/о н/о -33.4 -47 -47 опасность
обморожения
991.5 985.6
01 24.09 ЮЗ 4 н/о н/о -33.4 -46 -46 опасность
обморожения
991.4 985.5
02 24.09 Ю 4 н/о н/о -34.1 -46 -46 опасность
обморожения
990.7 984.8
03 24.09 Ю 5 н/о н/о -34.8 -48 -48 опасность
обморожения
990.8 984.9
05 24.09 ЮВ 2 н/о н/о -34.3 -43 -43 опасность
обморожения
990.6 984.7
04 24.09 Ю 3 н/о н/о -34.5 -45 -45 опасность
обморожения
990.6 984.7
06 24.09 ЮЗ 3 н/о н/о -34.2 -44 -44 опасность
обморожения
990.3 984.4
07 24.09 ЮЗ 2 н/о н/о -35.3 -42 -42 опасность
обморожения
990.1 984.2
08 24.09 ЮЗ 2 н/о н/о -37.2 -44 -44 опасность
обморожения
990.0 984.0
09 24.09 З 2 н/о н/о -36.0 -45 -45 опасность
обморожения
990.2 984.2
13 24.09 Ю 1 н/о н/о -34.9 -40 -40 опасность
обморожения
989.3 983.4

 

Местоположение метеостанции Linda (Антарктида): широта -78.45 долгота 168.39 высота над уровнем моря 43 м.

В архиве по умолчанию представлена погода в Linda за последнюю неделю. Архивные данные за месяц целиком и за предыдущие месяцы, начиная с января 2011 года, Вы можете получить, выбрав интересующий диапазон дат из раскрывающегося списка и нажав кнопку "Ввод!".


*Определитесь, кто Вы:
робот инопланетянин человек

Внимание! Время в таблицах - всемирное. Для получения местного времени необходимо прибавить поправку, которая в Linda равна 0 ч.

Смотрите также архив погоды в соседних городах и на ближайших метеорологических станциях:

Погода в Minna Bluff (Антарктида) (39 км)
Погода в Pegasus North (Антарктида) (70 км)
Погода в McMurdo (Антарктида) (78 км)
Погода в Ferrell (Антарктида) (84 км)
Погода в Marble Point (Антарктида) (156 км)
Погода в Schwerdtfeger (Антарктида) (162 км)
Погода в Marilyn (Антарктида) (180 км)
Погода в Cape Ross (Антарктида) (233 км)
Погода в Gill (Антарктида) (319 км)
Погода в Manuela (Антарктида) (408 км)

Пояснения к столбцам:

Ветер - указаны скорость ветра в м/с - средняя за 10 мин, порывы в срок и между сроками (в фигурных скобках) и направление, откуда дует ветер: С - северный, СВ - северо-восточный, В - восточный, ЮВ - юго-восточный, Ю - южный, ЮЗ - юго-западный, З - западный, СЗ - северо-западный.
Видимость - горизонтальная дальность видимости в метрах или километрах. При видимости от 1 до 10 км при отсутствии осадков обычно наблюдается дымка, при ухудшении видимости до 1 км и менее - туман. В сухую погоду видимость может ухудшаться дымом, пылью или мглою.
Явления - указаны атмосферные явления, наблюдавшиеся в срок или в последний час перед сроком; фигурными скобками обозначены явления, наблюдавшиеся между сроками (за 1-3 часа до срока); квадратными скобками обозначены град или гололедные отложения с указанием их диаметра в мм.
Облачность - указаны через наклонную черту общая и нижняя облачность в баллах и высота нижней границы облаков в метрах; квадратными скобками обозначены формы облаков: Ci - перистые, Cs - перисто-слоистые, Cc - перисто-кучевые, Ac - высококучевые, As - высокослоистые, Sc - слоисто-кучевые, Ns - слоисто-дождевые, Cu - кучевые, Cb - кучево-дождевые. Подробнее классификацию облаков см. в Атласе облаков (PDF).
T - Температура воздуха - температура, измеренная на высоте 2 м над землей.
Td - Температура точки росы - температура, при понижении до которой содержащийся в воздухе водяной пар достигнет насыщения.
f - Относительная влажность воздуха - влажноcть воздуха, измеренная на высоте 2 м над землей.
Te - Эффективная температура - температура, которую ощущает одетый по сезону человек в тени. Характеристика душности погоды. При расчете учитывается влияние влажности воздуха и скорости ветра на теплоощущения человека.
Tes - Эффективная температура на солнце - температура, которую ощущает человек, с поправкой на солнечный нагрев. Характеристика знойности погоды. Зависит от высоты солнца над горизонтом, облачности и скорости ветра. Ночью, в пасмурную погоду, а также при ветре 12 м/с и более поправка равна нулю.
P - Атмосферное давление - приведенное к уровню моря атмосферное давление.
Po - Атмосферное давление - измеренное на уровне метеостанции атмосферное давление.
Tmin - Минимальная температура - минимум температуры воздуха на высоте 2 м над землей.
Tmax - Максимальная температура - максимум температуры воздуха на высоте 2 м над землей.
R - Количество осадков - Количество выпавших осадков за период времени, мм. При наведении курсора мыши на число - период времени, за который выпало указанное количество осадков.
R24 - Количество осадков - Количество выпавших осадков за 24 часа, мм.
S - Снежный покров - Высота снежного покрова, см. При наведении курсора мыши на число - состояние снежного покрова и степень покрытия местности в баллах.